Regional Weather Roundup
Issued by NWS Wakefield, VA

Home | Current Version | Previous Version | Text Only | Print | Product List | Glossary Off
Versions: 1 2 3 4 5 6 7 8 9 10 11 12 13 14 15 16 17 18 19 20 21 22 23 24 25 26 27 28 29 30 31 32 33 34 35 36 37 38 39 40 41 42 43 44 45 46 47 48 49 50

000
ASUS41 KAKQ 041715
RWRAKQ

REGIONAL WEATHER ROUNDUP
NATIONAL WEATHER SERVICE WAKEFIELD VA
100 PM EDT SAT JUL 04 2015

Note: "fair" indicates few or no clouds below 12,000 feet with no
significant weather and/or obstructions to visibility. * = Denotes
station may not report precipitation (e.g., rain,snow,etc.),
thunder or fog.

VAZ042-051-052>054-056-041800-
NORTHERN VIRGINIA

CITY           SKY/WX    TMP DP  RH WIND       PRES   REMARKS
WASH NATIONAL  PTSUNNY   78  70  76 E3        29.92S
DULLES         CLOUDY    77  69  76 CALM      29.91S
FORT BELVOIR   CLOUDY    77  70  79 SW2       29.91S
QUANTICO       CLOUDY    78  70  76 S5        29.91S
FREDERICKSBRG* CLOUDY    82  70  68 SW6       29.91R
STAFFORD*      CLOUDY    78  68  71 CALM      29.95S
WARRENTON      CLOUDY    81  72  73 CALM      29.91S
CULPEPER*      CLOUDY    78  69  73 CALM      29.92S
MANASSAS*      PTSUNNY   79  70  73 CALM        N/A
LEESBURG*      PTSUNNY   77  72  83 S8        29.92S
WINCHESTER     PTSUNNY   81  70  69 SW5       29.92R
FRONT ROYAL*   CLOUDY    77  70  78 CALM      29.91R
LURAY*         CLOUDY    82  70  65 SW6       29.93S
$$

VAZ048-049-060>072-079>083-041800-
CENTRAL AND SOUTH CENTRAL VIRGINIA

CITY           SKY/WX    TMP DP  RH WIND       PRES   REMARKS
RICHMOND       PTSUNNY   81  69  67 SW10      29.92S
CHESTERFIELD*  NOT AVBL
PETERSBURG*    MOSUNNY   83  75  76 SW8       29.93F
HANOVER        CLOUDY    79  70  74 SW7       29.94R
TAPPAHANNOCK*  CLOUDY    82  67  61 S6        29.92S
QUINTON*       NOT AVBL
CHARLOTTSVILLE CLOUDY    79  69  71 SW6       29.92S
GORDONSVILLE*  CLOUDY    79  70  73 CALM      29.92S
ORANGE*        PTSUNNY   81  72  74 S3        29.94R
LOUISA*        CLOUDY    81  70  69 SW3       29.92R
BUMPASS*       CLOUDY    79  70  75 SW7       29.92S
FARMVILLE*     CLOUDY    82  69  63 SW8       29.92S
CREWE*         PTSUNNY   81  69  67 SW9       29.94R
FORT PICKETT*  PTSUNNY   80  71  73 SW10      29.94S
CHASE CITY*    PTSUNNY   83  74  74 W5        29.96R
CLARKSVILLE*   PTSUNNY   81  72  74 SW7       29.96S
SOUTH HILL*    MOSUNNY   81  71  72 SW9       30.01S
LAWRENCEVILLE* NOT AVBL
EMPORIA*         N/A     81  70  69 SW8       29.96R
$$

VAZ088>098-041800-
SOUTHEAST VIRGINIA

CITY           SKY/WX    TMP DP  RH WIND       PRES   REMARKS
NORFOLK        MOSUNNY   83  69  62 W10       29.92F
VIRGINIA BEACH PTSUNNY   85  70  60 W12       29.91F
NORFOLK NAVAL  PTSUNNY   82  71  69 W13G18    29.94R
WEST POINT*    CLOUDY    82  71  68 SW7       29.93S
SALUDA*        CLOUDY    81  72  74 W5        29.90S
NEWPORT NEWS   PTSUNNY   81  71  71 SW12      29.92S
LANGLEY AFB    PTSUNNY   82  72  70 SW12      29.90F
FORT EUSTIS    MOSUNNY   83  77  82 W8        29.90F
WILLIAMSBURG*  SUNNY     84  73  70 W9        29.93S
HR EXEC AP*    FAIR      84  73  70 SW9       29.94S
FRANKLIN*      PTSUNNY   82  71  69 SW9       29.94S
WAKEFIELD      PTSUNNY   83  71  67 SW8       29.93S
$$

VAZ020-022-025-037-045-041800-
WEST CENTRAL AND SOUTHWEST VIRGINIA

CITY           SKY/WX    TMP DP  RH WIND       PRES   REMARKS
STAUNTON*      PTSUNNY   82  68  62 SW6       29.96S
WAYNESBORO*    FAIR      78  68  69 W6        29.96R
HOT SPRINGS VA CLOUDY    67  67 100 W10       30.07S
LYNCHBURG      PTSUNNY   79  69  71 VRB7      29.97S
DANVILLE       LGT RAIN  81  68  64 W10       29.97S
SOUTH BOSTON*  FAIR      81  69  67 MISG      29.96S
MARTINSVILLE   PTSUNNY   82  69  63 S6        30.01S
ROANOKE        PTSUNNY   81  65  58 W12       29.98F
BLACKSBURG     CLOUDY    74  67  77 W8        30.06S
DUBLIN*        PTSUNNY   78  68  72 W8        30.05S
MARION*        CLOUDY    71  67  87 W7        30.10S
HILLSVILLE*    CLOUDY    72  64  75 W8G21     30.07R
RICHLANDS*     CLOUDY    71  65  84 SW8       30.08S
WISE*          CLOUDY    72  68  88 SW8       30.10S
ABINGDON*      CLOUDY    76  69  78 W9        30.07S
$$

MDZ021>025-VAZ099-100-041800-
SOUTHERN MARYLAND AND THE DELMARVA PENINSULA

CITY           SKY/WX    TMP DP  RH WIND       PRES   REMARKS
PATUXENT RIVER PTSUNNY   79  71  76 NE8       29.90S
BAY BRIDGE APT   N/A     75  66  73 CALM      29.91F
LEONARDTOWN    CLOUDY    79  68  69 CALM      29.92S
DOVER          CLOUDY    76  65  68 E3        29.90S
GEORGETOWN     CLOUDY    77  68  73 NE9       29.91S
EASTON         MOSUNNY   81  72  74 E3        29.94
CAMBRIDGE      MOSUNNY   81  64  57 NW6       29.90S
SALISBURY      CLOUDY    78  71  79 N6        29.90R
OCEAN CITY     CLOUDY    75  70  84 NE9       29.90R
WALLOPS ISLAND PTSUNNY   81  72  74 NW7       29.89S
ACCOMACK*      PTSUNNY   81  73  78 W10       29.91R
$$

NCZ012>017-030>032-041800-
NORTH CENTRAL AND EASTERN NORTH CAROLINA

CITY           SKY/WX    TMP DP  RH WIND       PRES   REMARKS
ROANOKE RAPIDS FAIR      84  70  61 SW10      29.96R
RALEIGH        PTSUNNY   81  70  69 W8        29.99S
ELIZABETH CITY MOSUNNY   85  71  63 SW13      29.94S
AHOSKIE*       MOSUNNY  N/A N/A N/A CALM      29.95S
EDENTON*         N/A     86  71  60 SW12G18   29.95R
CURRITUCK*     MOSUNNY   85  68  56 W8G16     29.94S
KILL DEVIL HLS MOSUNNY   89  70  53 W12G18    29.94S HX  95
MANTEO         MOSUNNY   85  70  60 W16G24    29.95S
CAPE HATTERAS  MOSUNNY   83  72  69 SW13G22   29.99S
TARBORO*         N/A     85  71  61 SW7       29.97S
GOLDSBORO      MOSUNNY   87  71  58 SW18G24   29.96S
WASHINGTON     MOSUNNY   86  71  60 SW14G25   29.97S
GREENVILLE     MOSUNNY   88  72  58 W8G20     29.98F
NEW BERN       PTSUNNY   87  69  54 W13G21    30.00S
WILMINGTON     PTSUNNY   90  69  50 W17G28    30.03S
$$

VAZ048-041800-
ELSEWHERE

CITY           SKY/WX    TMP DP  RH WIND       PRES   REMARKS
HARRISBURG PA  CLOUDY    69  63  81 E10       29.93S
BALTIMORE      CLOUDY    74  67  78 CALM      29.92S
ANNAPOLIS      PTSUNNY   76  67  73 E3        29.91F
ANDREWS AFB    CLOUDY    76  71  87 NW2       29.91S
PHILADELPHIA   LGT RAIN  73  65  75 NE9       29.93F
HENDERSON NC   PTSUNNY   79  66  64 SW6       29.98R
GREENSBORO     CLOUDY    81  68  64 SW9       30.01S
ROCKY MOUNT    PTSUNNY   85  72  65 S13       29.96F
$$

VAZ100-041800-
MARINE

STATION/POSITION TIME  TEMP    WIND        PRES    WAVE   SWELL
                       AIR SEA DIR/SP/G            HT/PER HT/PER
                 (UTC) (F)     (DEG/KT/KT) (MB)    (FT/S) (FT/S)
BRANDYWINE LGT   1600   73 72   60/  9/ 10 1013.0R
CAPE MAY NJ      1600   75 76   40/  5/ 10 1012.4R
LEWES DE         1600   72 72   40/  9/ 10 1012.5R
15NM E FENWICK I 1650   72 73              1011.6R   4/ 5
OCEAN-CITY-INLET 1600   73 73   20/  7/ 11 1011.9R
WACHAPREAGUE VA  1600   83 79   CALM  /  7 1012.4R
THOMAS POINT MD  1700   73 76   40/  4/  5 1013.4S
GOOSES REEF MD   1700   76 79   50/  4/  4 1013.8F
COVE POINT MD    1600   74      20/  7/ 10 1013.3R
SOLOMONS ISLAND  1600      79                N/A
BISHOPS HEAD MD  1600   77     290/  9/ 10 1012.3R
PINEY POINT MD   1600          340/  7/  9   N/A
CAMBRIDGE MD     1600   76 78  300/  6/  9 1012.5R
LEWISETTA VA     1600   77 80   10/  7/  9 1012.3R
RAPPAHANNOCK LGT 1600          270/  8/  9 1013.2R
STINGRAY PT      1700   79 80  240/ 10/ 12 1012.6F   1
YORK RVR RNG VA  1600   77     300/  9/ 10 1012.5R
YORKTOWN VA      1600   78 79  270/ 11/ 16 1012.8R
JAMESTOWN VA     1700   80 82  250/ 10/ 14   N/A
DOMINION TERM VA 1600   78     260/ 14/ 18 1013.2R
KIPTOPEKE VA     1600      82  300/ 11/ 13   N/A
CHES BAY BRIDGE  1600   77 76  250/ 13/ 16 1012.8R
CAPE HENRY VA    1600   79     280/ 12/ 15 1011.7R
CHESAPEAKE LGHT  1600   77     270/  7/  8 1013.9R
WILLOUBY STN VA  1600   77     250/ 14/ 16 1014.0R
CAPE HENRY BUOY  1628      76                N/A     3/ 8
1ST LANDING BUOY 1700      77              1013.0R   2/ 3
CAPE CHARLES BUO 1626      75                N/A     3/ 8   2/ 8
OFFSHORE WE BUOY 1611      78                N/A     5/ 8   5/ 8
64NM E OF VA BCH 1650   77 76  250/ 14/ 16 1013.3R   6/ 8   5/ 8
DUCK PIER NC     1600   81 67  250/ 17/ 24   N/A
44100 DUCK FRF   1624      75                N/A     3/ 7
44056 DUCK FRF   1611      76                N/A     2/ 9
OREGON INLET NC  1600   83 80  240/ 16/ 19 1014.4R
HATTERAS NC      1600   81 77  220/ 13/ 18 1015.3R
DIAMOND SHLS NC  1650   81 81  230/ 23/ 27 1015.4S   6/ 7   2/14
CAPE LOOKOUT NC  1700   83     230/ 13/ 19 1016.7R
$$


USA.gov is the U.S. government's official web portal to all federal, state and local government web resources and services.